SUPERVIEW NEO-2 02

导读

SUPERVIEW NEO-2 02是中国四维打造的SuperView Neo商业遥感卫星系统中,SuperView Neo-2系列合成孔径雷达(SAR)卫星。该卫星于2022年7月15日在中国发射,聚焦聚束模式下50厘米分辨率SAR成像服务,可服务自然资源勘探、城市安全治理、应急灾害响应、海洋监测等领域,为各行业用户提供高质量遥感数据与多样化应用支撑,推动中国商业SAR遥感应用发展。

Basic Information
目录编号:
53130
目录名称:
SUPERVIEW NEO-2 02
国际标识:
2022-082C
轨道中心:
EARTH
卫星名称:
SUPERVIEW NEO-2 02
卫星全名:
--
卫星状态:
在轨 (已飞行1429 天)
发射日期:
2022-07-15 UTC
国别 :
中国 (CN)
星等 :
--
Orbit Information
数据来源 国际轨道数据 AOE轨道数据
星历时间 2026-06-13T03:03:43+0800
8小时前
查看轨道信息
2026-06-12T06:00:00+0800
1天前
查看轨道信息
半长轴 6870.412km 6870.383km
偏心率 0.0001677 0.0001659
轨道倾角 97.394° 97.391°
近地点辐角 88.166° 89.147°
升交点赤经 173.863° 172.996°
平近点角 271.977° 137.759°
近地点 491.122km 491.106km
远地点 493.428km 493.386km
周期 94.457分钟 94.456分钟
每日圈数 15.245041 15.24514
Detailed Information
使用方式:
暂无
2D Orbit Map
3D Orbit Map
Orbit Altitude Analysis Chart
Orbit Inclination Analysis Chart
Orbit Comprehensive Analysis Chart
View Comprehensive Chart